Sigil TimeFrame

98 Gods Updated: 2020-01-26 14:55:02
NameTime LeftWindow Opens
In TimeFrame
Crolvak, the Fire Master 1d 04:222020-01-25 07:47:00
Amalgamated Apparition 1d 02:082020-01-25 10:01:00
Xynak, the Arcane Master 0d 23:152020-01-25 12:54:00
Windstrike The Vile 0d 20:012020-01-25 16:08:00
Grivvek, Protector of the Brood 0d 19:462020-01-25 16:23:00
Gregov, Knight of the Woods 0d 16:042020-01-25 20:05:00
Smoot the Yeti 0d 10:542020-01-26 01:15:00
Lady Ariella 0d 10:142020-01-26 01:55:00
Melt Bane, The Forbidden Demon Dragon 0d 09:172020-01-26 02:52:00
Hyrak, Bringer of Nightmares 0d 08:462020-01-26 03:23:00
Q-SEC Commander 0d 08:022020-01-26 04:07:00
Wanhiroeaz the Devourer 0d 07:102020-01-26 04:59:00
Brutalitar, Lord of the Underworld 0d 06:472020-01-26 05:22:00
Nessam 0d 05:442020-01-26 06:25:00
Sarcrina the Astral Priestess 0d 05:242020-01-26 06:45:00
Jazzmin, Maiden of Vitality 0d 03:512020-01-26 08:18:00
Varsanor, Master of Darkness 0d 03:432020-01-26 08:26:00
Quiver, The Renegade 0d 03:062020-01-26 09:03:00
Lady Chaos, Queen of the Abyss 0d 01:552020-01-26 10:14:00
Zikkir the Dark Archer 0d 01:462020-01-26 10:23:00
Not In TimeFrame
Crane 0d 01:292020-01-26 13:39:00
Shadow 0d 01:542020-01-26 14:04:00
Threk, King of Lords 0d 02:212020-01-26 14:31:00
Lord Narada 0d 03:092020-01-26 15:19:00
Mistress of the Sword 0d 03:142020-01-26 15:24:00
Esquin, the Kinetic Master 0d 04:172020-01-26 16:27:00
Lord Varan 0d 04:222020-01-26 16:32:00
Traxodon the Plaguebringer 0d 04:392020-01-26 16:49:00
Detox 0d 04:542020-01-26 17:04:00
Skybrine The Inescapable 0d 05:442020-01-26 17:54:00
Tsort 0d 06:102020-01-26 18:20:00
Archdevil Yirkon 0d 06:262020-01-26 18:36:00
Lacuste of the Swarm 0d 06:302020-01-26 18:40:00
The Emerald Assassin 0d 07:062020-01-26 19:16:00
Vitkros, Hydra of the Deep 0d 08:442020-01-26 20:54:00
Samatha Dark-Soul 0d 10:162020-01-26 22:26:00
Ebliss, Fallen Angel of Despair 0d 10:322020-01-26 22:42:00
Garland, The Lord Keeper 0d 10:352020-01-26 22:45:00
Pinosis 0d 11:332020-01-26 23:43:00
Rancid, Lord of Thugs 0d 12:142020-01-27 00:24:00
Baron Mu, Dark Rider of the Undead 0d 12:172020-01-27 00:27:00
Bloodchill the Grizzly 0d 12:332020-01-27 00:43:00
Ancient Magus Tarkin 0d 12:442020-01-27 00:54:00
Freezebreed, The Frozen Manipulator 0d 13:252020-01-27 01:35:00
Synge, The Red Dragon 0d 14:402020-01-27 02:50:00
Tylos, The Lord Master 0d 15:392020-01-27 03:49:00
Howldroid, Tormentor of the Pit 0d 18:402020-01-27 06:50:00
Lord Suka 0d 18:572020-01-27 07:07:00
Raiyar, the Shadow Master 0d 21:412020-01-27 09:51:00
Anvilfist 0d 22:442020-01-27 10:54:00
Jade Dragonite 0d 23:332020-01-27 11:43:00
Ganja the Stone Golem 0d 23:432020-01-27 11:53:00
Beast of Cards 0d 23:432020-01-27 11:53:00
Murfax, Beast of the Caves 1d 00:012020-01-27 12:11:00
Lord Sibannac 1d 00:092020-01-27 12:19:00
Animated Captain 1d 00:552020-01-27 13:05:00
Crantos, Defender of Ultimation 1d 01:482020-01-27 13:58:00
Rotborn, Eater of the Dead 1d 02:122020-01-27 14:22:00
Terrance, Rebel of Rallis 1d 02:132020-01-27 14:23:00
Murderface 1d 02:232020-01-27 14:33:00
Viserion, the Necrodragon 1d 02:582020-01-27 15:08:00
Nafir, God of Desolation 1d 03:352020-01-27 15:45:00
Jorun the Blazing Swordsman 1d 06:162020-01-27 18:26:00
Skarthul the Avenged 1d 06:232020-01-27 18:33:00
Gnorb 1d 08:032020-01-27 20:13:00
Keeper of Nature 1d 08:512020-01-27 21:01:00
Volgan the Living Ironbark 1d 09:492020-01-27 21:59:00
Anguish 1d 09:512020-01-27 22:01:00
Sigil, Lich of Woe 1d 10:272020-01-27 22:37:00
Numerocure, The Black Messenger of Evil 1d 13:052020-01-28 01:15:00
Nayark the Mummified Sorcerer 1d 17:002020-01-28 05:10:00
Gorganus of the Wood 1d 20:472020-01-28 08:57:00
Sylvanna TorLai 1d 20:552020-01-28 09:05:00
King Ashnar, Lord of the Unliving 1d 21:452020-01-28 09:55:00
Kretok, Descendant of Nature 2d 00:432020-01-28 12:53:00
Dreg nor, Keeper of the Infernal Essence 2d 04:192020-01-28 16:29:00
Balerion, Dragon of Dread 2d 04:202020-01-28 16:30:00
Nar Zhul, Slayer of All 2d 07:082020-01-28 19:18:00
Zertan, The Collector 2d 08:272020-01-28 20:37:00
Lord Xordam 2d 09:242020-01-28 21:34:00
Great Lord Ganeshan 2d 10:562020-01-28 23:06:00
Old World Drake 2d 11:082020-01-28 23:18:00
Hackerphage, Protector of the Gateway 2d 12:432020-01-29 00:53:00
Akkel the Enflamed Warrior 2d 16:272020-01-29 04:37:00
Straya, the Underworld Ruler 2d 17:442020-01-29 05:54:00
Bolkor, the Holy Master 2d 22:472020-01-29 10:57:00
Ag Nabak the Abomination 3d 05:112020-01-29 17:21:00
Slashbrood, Devourer of the Blackness 3d 19:582020-01-30 08:08:00
Ormsul the Putrid 4d 02:442020-01-30 14:54:00
Dlanod, the Crazed Chancellor 4d 14:552020-01-31 03:05:00
Felroc, Overseer of Hellfire 4d 19:042020-01-31 07:14:00
Emperor Neudeus, Controller of the Universe 4d 19:512020-01-31 08:01:00
Karvaz, Lord of Alsayic 4d 23:112020-01-31 11:21:00
Dexor, Victor of Veldara 5d 04:412020-01-31 16:51:00
Kro Shuk, Doomslayer 7d 11:062020-02-02 23:16:00
Out of TimeFrame
Shaik, Servant of Arkron 57d 22:002019-11-29 14:09:00
Rook, Hand of Arkron 56d 02:162019-12-01 09:53:00
Noxious Slug 5d 23:002020-01-20 13:09:00